Location: Gälforsberget
(66.6500°N, 22.4167°E)
Time: 08:03:45
(UTC+00:00)

CZ-2C R/B - Pass Details

Date: 11 April 2026
Orbit: 781 x 868 km, 98.4° (Epoch: 13 May)

Event Time Altitude Azimuth Distance (km) Brightness Sun altitude
Exits shadow 22:02:54 21° 158° (SSE) 1,861 3.9 -14.6°
Maximum altitude 22:06:49 88° 246° (WSW) 864 2.7 -14.6°
Drops below altitude 10° 22:12:21 10° 338° (NNW) 2,472 6.4 -14.7°
Sets 22:14:42 0° 339° (NNW) 3,397 7.4 -14.7°
